Location: Red Rock Canyon
(36.1333°N, 115.4333°W)
Time: 15:25:47
(UTC-07:00)

ISS - Visible Passes

Search period start: 01 July 2016 00:00
Search period end: 11 July 2016 00:00
Orbit: 402 x 404 km, 51.6° (Epoch: 02 July)

Date Brightness Start Highest point End Pass type
(mag) Time Alt. Az. Time Alt. Az. Time Alt. Az.
06 Jul -2.1 04:51:06 10° SSW 04:54:05 34° SE 04:57:05 10° ENE visible
07 Jul -1.0 04:00:00 13° SSE 04:01:25 16° SE 04:03:33 10° E visible
08 Jul -3.4 04:41:59 14° SW 04:44:44 83° NW 04:48:00 10° NE visible
09 Jul -2.6 03:51:16 37° S 03:51:56 43° SE 03:55:03 10° ENE visible
10 Jul -0.8 03:00:29 16° E 03:00:29 16° E 03:01:42 10° E visible
10 Jul -2.1 04:33:06 14° W 04:35:30 33° NW 04:38:29 10° NNE visible
